Weather in Starobzhegokay

Russia / Republic of Adygea     45°02′06″N   38°53′32″E
temp.,
°C
wind,
m/s
gust,
m/s
humid.,
%
clouds,
%
prec.,
mm/h
press.,
hPa
HPBL,
m
12 april, mon
mon1200:00+8s1195100 0.0 101925
03:00+8s1292100 0.1 102032
06:00+8sw2591100 0.0 1020197
09:00+9sw368697 0.4 1021558
12:00+12sw4668100 0.0 10211119
15:00+13ssw3563100 0.1 10221205
18:00+12ssw3572100 0.0 1022385
21:00+9sw2579100 0.0 1023174
13 april, tue
tue1300:00+9sw2582100 0.0 1023202
03:00+9sw2486100 0.0 1023171
06:00+8wsw1186100 0.0 102345
09:00+10ese1282100 0.0 1023231
12:00+12se1171100 0.0 1023585
15:00+13se3369100 0.0 1022835
18:00+11e2385100 0.1 1021295
21:00+10e2389100 0.1 1021147
14 april, wed
wed1400:00+10nne1190100 0.0 102055
03:00+8e2393100 0.0 101998
06:00+8se0094100 0.0 101913
09:00+11sse0080100 0.0 1019348
12:00+12ese1177100 0.1 1018391
15:00+13ssw3472100 0.1 1018655
18:00+13wsw247599 0.0 1017347
21:00+10sw238363 0.0 101761
15 april, thu
thu1500:00+8ssw22880 0.0 101725
03:00+7s22870 0.0 101619
06:00+7ese23903 0.0 101649
09:00+12se23730 0.0 1016340
12:00+17se235590 0.0 1015991
15:00+18s2455100 0.1 10141213
18:00+16nnw347057 0.1 1014271
21:00+12wnw228484 0.1 101545
16 april, fri
fri1600:00+12s118395 0.1 101555
03:00+9sw36882 0.1 1016188
06:00+8sw37885 0.0 1017247
09:00+12sw486598 0.0 1018729
12:00+15sw685342 0.0 10181314
15:00+16sw685211 0.0 10181486
18:00+13sw4763100 0.0 1018908
21:00+9sw36770 0.0 1019318